Location: Lynch Observatory
(39.9540°N, 75.1861°W)
Time: 01:38:48
(UTC-04:00)

BUGSAT 1 - Visible Passes

Search period start: 16 April 2024 00:00
Search period end: 26 April 2024 00:00
Orbit: 533 x 582 km, 98.1° (Epoch: 15 April)

Date Brightness Start Highest point End Pass type
(mag) Time Alt. Az. Time Alt. Az. Time Alt. Az.
16 Apr ? 21:12:25 10° SSW 21:15:49 29° W 21:19:19 10° NW visible
17 Apr ? 21:10:22 10° SSW 21:13:51 31° W 21:17:24 10° NW visible
18 Apr ? 21:08:18 10° SSW 21:11:51 33° W 21:15:28 10° NNW visible
19 Apr ? 21:06:15 10° SSW 21:09:50 35° W 21:13:31 10° NNW visible
20 Apr ? 21:04:10 10° SSW 21:07:48 37° W 21:11:32 10° NNW visible
21 Apr ? 21:02:04 10° S 21:05:46 40° W 21:09:33 10° NNW visible
22 Apr ? 20:59:58 10° S 21:03:43 43° W 21:07:32 10° NNW visible
23 Apr ? 20:57:51 10° S 21:01:38 46° W 21:05:31 10° NNW visible
24 Apr ? 20:55:44 10° S 20:59:34 49° W 21:03:29 10° NNW visible
25 Apr ? 20:53:36 10° S 20:57:28 53° W 21:01:25 10° NNW visible
